Wind_Speed
43 44 46 45 46 48 49 50 48 45 44 46 50 51 52 54 56 58 59 61 62 60 59 56 56 55 55 54 54 57 57 57
41 44 46 45 48 49 50 53 51 52 51 51 51 51 51 50 52 53 56 59 58 59 57 59 58 58 57 58 62 62 59 59
38 39 41 41 39 41 42 44 46 48 51 52 53 54 55 58 59 60 62 62 64 63 64 63 65 66 66 66 66 62 61 60
39 42 43 45 46 49 48 50 52 54 53 52 52 48 50 54 53 54 57 59 62 63 66 69 70 70 70 68 64 63 61 59
38 39 43 45 46 47 49 49 50 48 48 48 47 47 49 46 49 51 52 53 53 58 58 62 68 72 73 74 71 68 65 64
37 39 41 41 42 44 47 48 47 46 47 46 49 54 52 55 59 60 62 67 66 67 70 69 73 67 67 70 73 74 71 69
42 45 45 46 49 50 51 53 54 55 58 59 63 66 66 68 68 72 73 73 75 75 75 75 74 73 72 72 75 75 73 72
49 51 52 53 54 56 58 61 63 65 66 68 70 72 73 73 75 76 77 80 80 81 82 82 79 76 75 78 77 80 81 78
51 55 57 59 62 64 66 67 68 69 70 73 75 75 77 80 84 85 83 86 85 87 90 89 85 82 83 83 81 86 86 83
60 60 59 60 63 64 64 65 67 68 69 70 71 79 81 83 86 87 92 93 94 96 96 93 89 87 87 88 90 90 91 92
62 62 63 64 65 65 68 71 71 72 74 76 80 81 85 91 93 93 97 96 99 102 100 94 93 93 95 96 96 99 96 95
64 65 66 67 68 69 72 73 75 77 81 90 89 94 97 97 97 98 103 102 103 98 94 92 88 90 93 96 95 95 94 91
68 68 70 71 72 74 77 78 82 84 91 96 102 101 102 106 107 107 108 102 94 90 87 86 86 85 89 92 89 88 90 90
75 75 74 77 81 83 81 83 85 92 99 102 103 106 108 109 110 112 102 92 89 85 83 85 85 83 82 82 84 83 85 85
78 79 81 83 87 86 88 90 95 100 106 107 110 113 112 114 111 102 95 88 84 81 80 81 81 80 79 79 77 78 77 72
84 85 86 90 88 90 94 97 103 106 109 112 113 115 113 113 104 91 85 83 82 79 78 76 76 74 71 71 70 68 71 68
90 93 94 95 98 99 104 108 109 109 112 117 117 109 114 103 90 85 80 78 75 72 70 68 67 65 64 62 58 57 56 57
94 95 98 101 103 104 109 116 119 120 121 121 119 111 105 93 87 80 78 76 71 67 64 62 61 59 56 52 46 46 45 46
99 103 105 104 109 114 115 121 124 120 116 118 109 110 97 89 84 79 76 73 67 62 60 59 58 55 51 45 43 42 42 43
109 109 114 114 116 116 120 120 122 116 114 113 109 98 90 84 81 76 72 66 60 57 56 55 54 51 47 42 41 39 40 40
Wind_Direction
265 270 268 267 264 264 265 265 267 272 272 273 274 273 276 279 282 282 281 281 287 289 289 289 287 286 286 284 283 286 286 286
271 272 268 267 265 265 263 264 268 270 271 275 277 278 277 276 278 281 282 283 284 284 287 289 286 284 283 281 282 283 282 282
261 260 261 263 265 266 267 269 272 273 274 276 278 279 279 280 283 285 287 286 287 288 285 283 282 282 282 281 280 280 281 279
266 264 264 264 266 268 272 273 271 274 278 279 279 282 282 283 284 285 285 286 285 284 284 283 281 281 281 280 281 280 277 277
273 277 278 275 274 276 274 273 272 273 276 279 278 281 281 281 283 286 288 287 288 293 289 288 284 281 279 278 276 274 273 273
277 280 281 282 283 284 285 282 282 283 275 278 276 279 280 282 284 286 284 289 289 290 292 292 290 284 280 276 274 274 272 271
283 285 284 283 284 284 284 285 283 283 280 278 281 285 284 287 288 288 288 292 289 289 292 291 289 282 279 279 276 274 272 271
282 282 283 284 284 283 283 284 284 284 284 285 286 286 286 287 290 291 290 291 294 295 294 292 288 281 276 275 273 272 272 269
281 284 284 284 285 286 286 285 285 286 287 288 289 291 294 290 289 289 291 294 292 293 292 290 288 280 276 275 273 271 270 269
285 284 286 284 284 285 283 284 284 285 286 287 291 295 291 291 293 290 290 288 288 288 287 286 284 281 277 273 272 273 270 269
283 283 284 284 284 284 284 284 284 286 287 294 296 298 294 292 293 293 292 294 292 289 287 283 281 277 274 272 271 271 271 268
286 287 288 287 284 284 287 287 288 290 295 301 300 302 300 300 296 298 296 292 291 289 284 279 278 274 274 271 270 270 269 267
287 288 288 286 286 287 288 290 290 294 300 303 303 304 302 302 300 300 298 294 290 287 283 278 275 273 273 271 270 269 266 266
287 287 288 288 288 290 292 295 296 297 301 301 301 303 303 303 301 300 297 292 289 284 280 276 275 275 275 272 271 268 267 265
288 287 285 287 293 294 294 296 298 299 301 302 302 302 302 304 300 299 296 292 287 283 280 278 278 278 277 275 273 272 269 267
289 289 290 292 291 293 295 297 298 297 299 301 303 302 302 303 300 297 295 292 288 285 283 282 280 279 276 274 273 271 270 267
290 292 293 294 295 297 294 296 298 298 299 301 302 301 303 302 298 297 296 293 289 286 284 282 280 277 275 273 272 272 270 270
292 292 293 293 294 295 295 298 299 297 299 301 303 303 305 303 300 298 296 294 291 288 284 281 278 275 272 271 271 270 269 269
288 289 293 293 295 297 298 298 299 299 300 303 303 303 302 301 300 298 297 296 293 289 284 278 274 270 267 265 268 267 265 262
290 294 294 296 297 299 299 299 298 300 301 302 302 302 300 300 298 298 298 295 291 286 280 275 271 265 261 260 262 266 261 257
Height
10742 10740 10739 10738 10738 10737 10737 10736 10735 10734 10733 10733 10731 10729 10728 10725 10724 10722 10720 10717 10716 10714 10713 10711 10710 10709 10708 10706 10705 10704 10703 10703
10733 10732 10731 10731 10729 10728 10727 10726 10726 10724 10723 10722 10720 10718 10716 10715 10713 10711 10709 10706 10704 10701 10699 10698 10696 10696 10695 10693 10692 10693 10691 10688
10724 10723 10722 10720 10720 10719 10718 10717 10716 10714 10712 10711 10710 10708 10706 10704 10701 10699 10696 10694 10691 10689 10686 10684 10682 10681 10680 10678 10678 10678 10677 10676
10717 10715 10714 10712 10711 10709 10709 10707 10705 10703 10703 10700 10698 10696 10693 10692 10690 10688 10685 10682 10678 10675 10671 10669 10666 10665 10664 10662 10661 10661 10661 10661
10710 10709 10707 10706 10704 10702 10699 10697 10695 10693 10691 10689 10687 10684 10682 10681 10678 10674 10671 10667 10664 10660 10657 10654 10651 10648 10646 10645 10644 10644 10644 10644
10703 10701 10699 10697 10696 10693 10690 10687 10685 10682 10680 10677 10674 10672 10670 10666 10662 10659 10655 10651 10648 10644 10640 10637 10634 10631 10628 10626 10624 10624 10625 10626
10695 10693 10691 10689 10685 10683 10680 10677 10674 10671 10669 10665 10662 10658 10654 10650 10646 10641 10637 10632 10629 10625 10622 10619 10615 10613 10609 10607 10605 10603 10604 10607
10685 10682 10680 10676 10674 10671 10668 10664 10660 10656 10652 10649 10646 10641 10636 10630 10626 10621 10617 10612 10607 10602 10599 10595 10593 10591 10588 10586 10584 10584 10584 10585
10673 10670 10667 10663 10660 10657 10653 10649 10644 10641 10637 10633 10627 10622 10616 10610 10605 10600 10595 10589 10583 10579 10575 10572 10568 10566 10563 10561 10560 10560 10560 10561
10659 10656 10653 10649 10645 10641 10637 10632 10628 10623 10618 10614 10609 10602 10595 10589 10582 10576 10569 10563 10557 10551 10548 10544 10542 10539 10536 10533 10533 10533 10534 10535
10645 10641 10637 10633 10630 10626 10621 10616 10611 10607 10602 10596 10589 10582 10575 10567 10558 10551 10543 10535 10527 10519 10514 10513 10511 10509 10506 10503 10503 10504 10504 10504
10630 10626 10621 10618 10613 10607 10603 10599 10594 10587 10581 10573 10565 10557 10549 10540 10532 10521 10513 10504 10495 10487 10481 10479 10479 10478 10475 10470 10470 10471 10471 10473
10615 10611 10606 10600 10594 10589 10585 10580 10574 10567 10559 10550 10542 10531 10523 10513 10504 10493 10483 10474 10465 10458 10452 10449 10448 10449 10446 10440 10439 10441 10440 10441
10598 10594 10589 10583 10577 10571 10567 10560 10554 10546 10537 10527 10519 10508 10498 10485 10474 10464 10452 10444 10437 10431 10425 10420 10417 10419 10417 10415 10411 10410 10411 10413
10580 10575 10570 10564 10557 10551 10546 10538 10531 10522 10512 10503 10491 10482 10469 10457 10444 10432 10422 10414 10409 10402 10397 10393 10389 10390 10389 10387 10386 10381 10380 10388
10561 10557 10551 10544 10536 10529 10522 10514 10507 10496 10488 10477 10466 10455 10442 10429 10415 10405 10396 10389 10382 10376 10372 10369 10366 10363 10363 10362 10361 10360 10357 10361
10539 10534 10528 10521 10513 10505 10496 10488 10478 10470 10461 10451 10439 10426 10415 10400 10388 10380 10372 10365 10359 10352 10348 10345 10342 10341 10340 10341 10340 10339 10339 10339
10515 10510 10504 10497 10489 10480 10471 10461 10451 10444 10435 10424 10410 10397 10384 10373 10363 10355 10348 10342 10335 10329 10325 10322 10321 10320 10321 10322 10323 10324 10324 10323
10492 10486 10479 10471 10463 10453 10445 10435 10425 10416 10406 10394 10381 10371 10361 10350 10341 10334 10326 10320 10313 10307 10303 10301 10301 10302 10304 10306 10308 10310 10312 10312
10466 10460 10451 10444 10437 10430 10416 10406 10397 10388 10378 10368 10357 10347 10338 10330 10321 10314 10307 10300 10294 10288 10284 10282 10282 10284 10288 10292 10294 10296 10298 10301